Flag for Germany Weather past 2 weeks in Eberswalde, Brandenburg, Germany

Now
45 °F

Passing clouds.


Feels Like: 39 °F
Forecast: 39 / 47 °F
Wind: 10 mph from South

Location: Berlin-Tegel

Current Time: Mar 29, 2015 at 5:19:15 AM

Latest Report: Mar 29, 2015 at 4:50 AM


Visibility: 4 mi

Pressure: 29.68 "Hg

Humidity: 93%

Dew point: 43 °F

Location of EberswaldeLocation

Historic Weather in Eberswalde — Graph

°F

Eberswalde temperature yesterday

Maximum temperature yesterday: 48 °F (at 1:20 PM)
Minimum temperature yesterday: 43 °F (at 12:20 AM)
Average temperature yesterday: 45 °F

Past Weeks' High & Low Weather Summary

 TemperatureHumidityPressure
High63 °F (Mar 17, 2:50 PM)100% (Mar 21, 5:20 AM)30.48 "Hg (Mar 21, 5:20 AM)
Low27 °F (Mar 20, 5:20 AM)14% (Mar 18, 2:20 PM)29.62 "Hg (Mar 26, 1:50 AM)
Average45 °F65%30.13 "Hg
* Reported Mar 14 3:20 AM — Mar 29 4:20 AM, Eberswalde, Weather by CustomWeather, © 2015

Note: Actual official high and low records may vary slightly from our data, if they occured in-between our weather recording intervals... More about our weather records

Advertising

Eberswalde weather history for previous 24 hours

 ConditionsComfort  
Time TempWeatherWind HumidityBarometerVisibility
4:20 AM
Sun, Mar 29
45 °FLight rain. Passing clouds.12 mph93%29.71 "Hg4 mi
3:50 AM45 °FLight rain. Passing clouds.12 mph87%29.71 "HgN/A
3:20 AM43 °FPassing clouds.9 mph93%29.74 "HgN/A
1:50 AM43 °FPartly cloudy.9 mph87%29.74 "HgN/A
1:20 AM43 °FLight rain. Partly cloudy.12 mph87%29.77 "Hg5 mi
12:50 AM45 °FLight rain. Partly cloudy.9 mph66%29.80 "HgN/A
12:20 AM45 °FPassing clouds.7 mph61%29.80 "HgN/A
11:50 PM
Sat, Mar 28
45 °FLight rain. Passing clouds.9 mph66%29.83 "HgN/A
11:20 PM45 °FLight rain. Passing clouds.9 mph61%29.83 "HgN/A
10:50 PM45 °FLight rain. Passing clouds.9 mph57%29.86 "HgN/A
10:20 PM45 °FLight rain. Clear.12 mph57%29.89 "HgN/A
9:50 PM45 °FLight rain. Clear.12 mph57%29.89 "HgN/A
9:20 PM45 °FClear.13 mph57%29.89 "Hg10 mi
8:50 PM46 °FClear.12 mph53%29.92 "Hg10 mi
8:20 PM45 °FClear.10 mph57%29.92 "Hg10 mi
7:50 PM45 °FClear.9 mph53%29.95 "Hg10 mi
7:20 PM45 °FClear.8 mph53%29.95 "Hg10 mi
6:50 PM46 °FClear.7 mph50%29.95 "Hg10 mi
6:20 PM46 °FSunny.7 mph50%29.98 "Hg10 mi
5:50 PM48 °FPassing clouds.9 mph46%29.98 "HgN/A
5:20 PM48 °FPassing clouds.9 mph46%29.98 "HgN/A
4:50 PM48 °FScattered clouds.10 mph50%30.01 "HgN/A
4:20 PM48 °FScattered clouds.10 mph54%30.01 "HgN/A
3:50 PM48 °FScattered clouds.8 mph54%30.01 "HgN/A
3:20 PM48 °FBroken clouds.9 mph54%30.04 "HgN/A
2:50 PM48 °FPartly sunny.8 mph58%30.04 "HgN/A
2:20 PM48 °FBroken clouds.5 mph54%30.07 "HgN/A
1:50 PM48 °FBroken clouds.7 mph62%30.07 "HgN/A
1:20 PM48 °FScattered clouds.6 mph62%30.07 "HgN/A
12:50 PM46 °FBroken clouds.7 mph71%30.09 "HgN/A
12:20 PM45 °FBroken clouds.7 mph76%30.09 "HgN/A
11:50 AM45 °FBroken clouds.8 mph81%30.12 "HgN/A
11:20 AM45 °FPartly sunny.8 mph81%30.12 "HgN/A
10:50 AM45 °FBroken clouds.7 mph81%30.12 "HgN/A
10:20 AM45 °FBroken clouds.7 mph81%30.12 "Hg6 mi
9:50 AM43 °FBroken clouds.6 mph87%30.15 "Hg5 mi
9:20 AM43 °FBroken clouds.7 mph87%30.15 "Hg5 mi
8:50 AM43 °FPartly sunny.8 mph87%30.15 "Hg4 mi
8:20 AM43 °FPartly sunny.8 mph87%30.15 "Hg4 mi
7:50 AM43 °FPartly sunny.7 mph87%30.15 "Hg4 mi
7:20 AM43 °FFog.7 mph87%30.15 "Hg3 mi
6:50 AM43 °FFog.7 mph87%30.12 "Hg3 mi
6:20 AM43 °FFog.7 mph87%30.12 "Hg3 mi
5:50 AM43 °FPassing clouds.7 mph93%30.12 "Hg4 mi
5:20 AM43 °FPassing clouds.7 mph93%30.12 "Hg5 mi
Weather by CustomWeather, © 2015

See weather overviewHow to use our weather pages